Year,Month,Day,Hour,Minute,Value (Times are PST for temperature in C)
2013,07,19,00,00,17.10
2013,07,19,00,01,17.10
2013,07,19,00,02,17.10
2013,07,19,00,03,17.10
2013,07,19,00,04,17.10
2013,07,19,00,05,17.10
2013,07,19,00,06,17.10
2013,07,19,00,07,17.10
2013,07,19,00,08,17.10
2013,07,19,00,09,17.10
2013,07,19,00,10,17.10
2013,07,19,00,11,17.10
2013,07,19,00,12,17.10
2013,07,19,00,13,17.10
2013,07,19,00,14,17.10
2013,07,19,00,15,17.10
2013,07,19,00,16,17.10
2013,07,19,00,17,17.10
2013,07,19,00,18,17.00
2013,07,19,00,19,17.00
2013,07,19,00,20,17.10
2013,07,19,00,21,17.00
2013,07,19,00,22,17.00
2013,07,19,00,23,17.00
2013,07,19,00,24,17.00
2013,07,19,00,25,17.00
2013,07,19,00,26,17.00
2013,07,19,00,27,16.90
2013,07,19,00,28,16.90
2013,07,19,00,29,16.90
2013,07,19,00,30,16.90
2013,07,19,00,31,16.90
2013,07,19,00,32,16.90
2013,07,19,00,33,16.90
2013,07,19,00,34,16.90
2013,07,19,00,35,16.90
2013,07,19,00,36,16.90
2013,07,19,00,37,16.90
2013,07,19,00,38,16.80
2013,07,19,00,39,16.80
2013,07,19,00,40,16.80
2013,07,19,00,41,16.80
2013,07,19,00,42,16.80
2013,07,19,00,43,16.80
2013,07,19,00,44,16.80
2013,07,19,00,45,16.70
2013,07,19,00,46,16.70
2013,07,19,00,47,16.70
2013,07,19,00,48,16.70
2013,07,19,00,49,16.70
2013,07,19,00,50,16.70
2013,07,19,00,51,16.70
2013,07,19,00,52,16.70
2013,07,19,00,53,16.70
2013,07,19,00,54,16.70
2013,07,19,00,55,16.70
2013,07,19,00,56,16.60
2013,07,19,00,57,16.60
2013,07,19,00,58,16.60
2013,07,19,00,59,16.60
2013,07,19,01,00,16.60
2013,07,19,01,01,16.60
2013,07,19,01,02,16.60
2013,07,19,01,03,16.60
2013,07,19,01,04,16.60
2013,07,19,01,05,16.60
2013,07,19,01,06,16.70
2013,07,19,01,07,16.70
2013,07,19,01,08,16.70
2013,07,19,01,09,16.70
2013,07,19,01,10,16.80
2013,07,19,01,11,16.80
2013,07,19,01,12,16.80
2013,07,19,01,13,16.90
2013,07,19,01,14,16.90
2013,07,19,01,15,17.00
2013,07,19,01,16,17.00
2013,07,19,01,17,17.00
2013,07,19,01,18,17.10
2013,07,19,01,19,17.10
2013,07,19,01,20,17.10
2013,07,19,01,21,17.20
2013,07,19,01,22,17.20
2013,07,19,01,23,17.20
2013,07,19,01,24,17.20
2013,07,19,01,25,17.20
2013,07,19,01,26,17.20
2013,07,19,01,27,17.20
2013,07,19,01,28,17.20
2013,07,19,01,29,17.30
2013,07,19,01,30,17.30
2013,07,19,01,31,17.30
2013,07,19,01,32,17.30
2013,07,19,01,33,17.30
2013,07,19,01,34,17.30
2013,07,19,01,35,17.40
2013,07,19,01,36,17.40
2013,07,19,01,37,17.40
2013,07,19,01,38,17.40
2013,07,19,01,39,17.50
2013,07,19,01,40,17.50
2013,07,19,01,41,17.50
2013,07,19,01,42,17.60
2013,07,19,01,43,17.60
2013,07,19,01,44,17.60
2013,07,19,01,45,17.60
2013,07,19,01,46,17.70
2013,07,19,01,47,17.70
2013,07,19,01,48,17.70
2013,07,19,01,49,17.70
2013,07,19,01,50,17.80
2013,07,19,01,51,17.80
2013,07,19,01,52,17.80
2013,07,19,01,53,17.80
2013,07,19,01,54,17.80
2013,07,19,01,55,17.80
2013,07,19,01,56,17.80
2013,07,19,01,57,17.80
2013,07,19,01,58,17.80
2013,07,19,01,59,17.80
2013,07,19,02,00,17.80
2013,07,19,02,01,17.70
2013,07,19,02,02,17.70
2013,07,19,02,03,17.70
2013,07,19,02,04,17.70
2013,07,19,02,05,17.70
2013,07,19,02,06,17.70
2013,07,19,02,07,17.70
2013,07,19,02,08,17.70
2013,07,19,02,09,17.70
2013,07,19,02,10,17.80
2013,07,19,02,11,17.80
2013,07,19,02,12,17.80
2013,07,19,02,13,17.80
2013,07,19,02,14,17.80
2013,07,19,02,15,17.80
2013,07,19,02,16,17.80
2013,07,19,02,17,17.80
2013,07,19,02,18,17.80
2013,07,19,02,19,17.80
2013,07,19,02,20,17.80
2013,07,19,02,21,17.80
2013,07,19,02,22,17.80
2013,07,19,02,23,17.80
2013,07,19,02,24,17.70
2013,07,19,02,25,17.70
2013,07,19,02,26,17.70
2013,07,19,02,27,17.70
2013,07,19,02,28,17.70
2013,07,19,02,29,17.60
2013,07,19,02,30,17.60
2013,07,19,02,31,17.60
2013,07,19,02,32,17.60
2013,07,19,02,33,17.60
2013,07,19,02,34,17.60
2013,07,19,02,35,17.60
2013,07,19,02,36,17.60
2013,07,19,02,37,17.60
2013,07,19,02,38,17.50
2013,07,19,02,39,17.50
2013,07,19,02,40,17.50
2013,07,19,02,41,17.50
2013,07,19,02,42,17.50
2013,07,19,02,43,17.50
2013,07,19,02,44,17.40
2013,07,19,02,45,17.40
2013,07,19,02,46,17.40
2013,07,19,02,47,17.40
2013,07,19,02,48,17.40
2013,07,19,02,49,17.40
2013,07,19,02,50,17.30
2013,07,19,02,51,17.30
2013,07,19,02,52,17.30
2013,07,19,02,53,17.20
2013,07,19,02,54,17.20
2013,07,19,02,55,17.10
2013,07,19,02,56,17.10
2013,07,19,02,57,17.10
2013,07,19,02,58,17.00
2013,07,19,02,59,17.00
2013,07,19,03,00,17.00
2013,07,19,03,01,16.90
2013,07,19,03,02,16.90
2013,07,19,03,03,16.80
2013,07,19,03,04,16.80
2013,07,19,03,05,16.80
2013,07,19,03,06,16.70
2013,07,19,03,07,16.70
2013,07,19,03,08,16.70
2013,07,19,03,09,16.70
2013,07,19,03,10,16.60
2013,07,19,03,11,16.60
2013,07,19,03,12,16.60
2013,07,19,03,13,16.60
2013,07,19,03,14,16.50
2013,07,19,03,15,16.50
2013,07,19,03,16,16.50
2013,07,19,03,17,16.50
2013,07,19,03,18,16.50
2013,07,19,03,19,16.40
2013,07,19,03,20,16.40
2013,07,19,03,21,16.40
2013,07,19,03,22,16.40
2013,07,19,03,23,16.40
2013,07,19,03,24,16.40
2013,07,19,03,25,16.40
2013,07,19,03,26,16.30
2013,07,19,03,27,16.30
2013,07,19,03,28,16.30
2013,07,19,03,29,16.30
2013,07,19,03,30,16.30
2013,07,19,03,31,16.30
2013,07,19,03,32,16.30
2013,07,19,03,33,16.30
2013,07,19,03,34,16.30
2013,07,19,03,35,16.30
2013,07,19,03,36,16.30
2013,07,19,03,37,16.30
2013,07,19,03,38,16.30
2013,07,19,03,39,16.30
2013,07,19,03,40,16.30
2013,07,19,03,41,16.30
2013,07,19,03,42,16.30
2013,07,19,03,43,16.30
2013,07,19,03,44,16.30
2013,07,19,03,45,16.30
2013,07,19,03,46,16.30
2013,07,19,03,47,16.30
2013,07,19,03,48,16.20
2013,07,19,03,49,16.20
2013,07,19,03,50,16.20
2013,07,19,03,51,16.20
2013,07,19,03,52,16.20
2013,07,19,03,53,16.20
2013,07,19,03,54,16.20
2013,07,19,03,55,16.20
2013,07,19,03,56,16.20
2013,07,19,03,57,16.20
2013,07,19,03,58,16.20
2013,07,19,03,59,16.10
2013,07,19,04,00,16.10
2013,07,19,04,01,16.10
2013,07,19,04,02,16.10
2013,07,19,04,03,16.10
2013,07,19,04,04,16.00
2013,07,19,04,05,16.00
2013,07,19,04,06,15.90
2013,07,19,04,07,15.90
2013,07,19,04,08,15.90
2013,07,19,04,09,15.90
2013,07,19,04,10,15.90
2013,07,19,04,11,15.90
2013,07,19,04,12,15.90
2013,07,19,04,13,15.90
2013,07,19,04,14,15.90
2013,07,19,04,15,15.90
2013,07,19,04,16,15.90
2013,07,19,04,17,15.90
2013,07,19,04,18,15.90
2013,07,19,04,19,15.90
2013,07,19,04,20,15.90
2013,07,19,04,21,15.90
2013,07,19,04,22,16.00
2013,07,19,04,23,16.00
2013,07,19,04,24,16.00
2013,07,19,04,25,16.10
2013,07,19,04,26,16.10
2013,07,19,04,27,16.10
2013,07,19,04,28,16.10
2013,07,19,04,29,16.10
2013,07,19,04,30,16.20
2013,07,19,04,31,16.20
2013,07,19,04,32,16.20
2013,07,19,04,33,16.20
2013,07,19,04,34,16.20
2013,07,19,04,35,16.20
2013,07,19,04,36,16.20
2013,07,19,04,37,16.20
2013,07,19,04,38,16.10
2013,07,19,04,39,16.10
2013,07,19,04,40,16.10
2013,07,19,04,41,16.10
2013,07,19,04,42,16.10
2013,07,19,04,43,16.10
2013,07,19,04,44,16.10
2013,07,19,04,45,16.10
2013,07,19,04,46,16.10
2013,07,19,04,47,16.00
2013,07,19,04,48,16.00
2013,07,19,04,49,16.00
2013,07,19,04,50,15.90
2013,07,19,04,51,15.90
2013,07,19,04,52,15.90
2013,07,19,04,53,15.90
2013,07,19,04,54,15.80
2013,07,19,04,55,15.80
2013,07,19,04,56,15.80
2013,07,19,04,57,15.80
2013,07,19,04,58,15.80
2013,07,19,04,59,15.80
2013,07,19,05,00,15.80
2013,07,19,05,01,15.80
2013,07,19,05,02,15.70
2013,07,19,05,03,15.70
2013,07,19,05,04,15.70
2013,07,19,05,05,15.70
2013,07,19,05,06,15.70
2013,07,19,05,07,15.70
2013,07,19,05,08,15.60
2013,07,19,05,09,15.60
2013,07,19,05,10,15.60
2013,07,19,05,11,15.60
2013,07,19,05,12,15.60
2013,07,19,05,13,15.60
2013,07,19,05,14,15.60
2013,07,19,05,15,15.60
2013,07,19,05,16,15.60
2013,07,19,05,17,15.60
2013,07,19,05,18,15.50
2013,07,19,05,19,15.50
2013,07,19,05,20,15.50
2013,07,19,05,21,15.50
2013,07,19,05,22,15.50
2013,07,19,05,23,15.50
2013,07,19,05,24,15.50
2013,07,19,05,25,15.50
2013,07,19,05,26,15.50
2013,07,19,05,27,15.50
2013,07,19,05,28,15.40
2013,07,19,05,29,15.40
2013,07,19,05,30,15.40
2013,07,19,05,31,15.40
2013,07,19,05,32,15.40
2013,07,19,05,33,15.30
2013,07,19,05,34,15.30
2013,07,19,05,35,15.30
2013,07,19,05,36,15.30
2013,07,19,05,37,15.30
2013,07,19,05,38,15.20
2013,07,19,05,39,15.20
2013,07,19,05,40,15.20
2013,07,19,05,41,15.20
2013,07,19,05,42,15.20
2013,07,19,05,43,15.20
2013,07,19,05,44,15.20
2013,07,19,05,45,15.20
2013,07,19,05,46,15.20
2013,07,19,05,47,15.20
2013,07,19,05,48,15.20
2013,07,19,05,49,15.10
2013,07,19,05,50,15.10
2013,07,19,05,51,15.10
2013,07,19,05,52,15.20
2013,07,19,05,53,15.20
2013,07,19,05,54,15.20
2013,07,19,05,55,15.20
2013,07,19,05,56,15.20
2013,07,19,05,57,15.20
2013,07,19,05,58,15.20
2013,07,19,05,59,15.10
2013,07,19,06,00,15.20
2013,07,19,06,01,15.10
2013,07,19,06,02,15.20
2013,07,19,06,03,15.20
2013,07,19,06,04,15.20
2013,07,19,06,05,15.20
2013,07,19,06,06,15.20
2013,07,19,06,07,15.20
2013,07,19,06,08,15.20
2013,07,19,06,09,15.20
2013,07,19,06,10,15.20
2013,07,19,06,11,15.30
2013,07,19,06,12,15.30
2013,07,19,06,13,15.30
2013,07,19,06,14,15.30
2013,07,19,06,15,15.30
2013,07,19,06,16,15.40
2013,07,19,06,17,15.40
2013,07,19,06,18,15.50
2013,07,19,06,19,15.50
2013,07,19,06,20,15.60
2013,07,19,06,21,15.60
2013,07,19,06,22,15.70
2013,07,19,06,23,15.70
2013,07,19,06,24,15.80
2013,07,19,06,25,15.80
2013,07,19,06,26,15.80
2013,07,19,06,27,15.90
2013,07,19,06,28,15.90
2013,07,19,06,29,16.00
2013,07,19,06,30,16.00
2013,07,19,06,31,16.10
2013,07,19,06,32,16.10
2013,07,19,06,33,16.20
2013,07,19,06,34,16.20
2013,07,19,06,35,16.30
2013,07,19,06,36,16.30
2013,07,19,06,37,16.30
2013,07,19,06,38,16.40
2013,07,19,06,39,16.40
2013,07,19,06,40,16.50
2013,07,19,06,41,16.50
2013,07,19,06,42,16.60
2013,07,19,06,43,16.60
2013,07,19,06,44,16.60
2013,07,19,06,45,16.70
2013,07,19,06,46,16.70
2013,07,19,06,47,16.70
2013,07,19,06,48,16.70
2013,07,19,06,49,16.80
2013,07,19,06,50,16.80
2013,07,19,06,51,16.80
2013,07,19,06,52,16.80
2013,07,19,06,53,16.90
2013,07,19,06,54,16.90
2013,07,19,06,55,16.90
2013,07,19,06,56,16.90
2013,07,19,06,57,16.90
2013,07,19,06,58,17.00
2013,07,19,06,59,17.00
2013,07,19,07,00,17.00
2013,07,19,07,01,17.10
2013,07,19,07,02,17.10
2013,07,19,07,03,17.10
2013,07,19,07,04,17.10
2013,07,19,07,05,17.20
2013,07,19,07,06,17.20
2013,07,19,07,07,17.20
2013,07,19,07,08,17.20
2013,07,19,07,09,17.20
2013,07,19,07,10,17.20
2013,07,19,07,11,17.20
2013,07,19,07,12,17.20
2013,07,19,07,13,17.30
2013,07,19,07,14,17.30
2013,07,19,07,15,17.30
2013,07,19,07,16,17.30
2013,07,19,07,17,17.30
2013,07,19,07,18,17.30
2013,07,19,07,19,17.30
2013,07,19,07,20,17.30
2013,07,19,07,21,17.40
2013,07,19,07,22,17.40
2013,07,19,07,23,17.40
2013,07,19,07,24,17.40
2013,07,19,07,25,17.40
2013,07,19,07,26,17.40
2013,07,19,07,27,17.50
2013,07,19,07,28,17.50
2013,07,19,07,29,17.50
2013,07,19,07,30,17.50
2013,07,19,07,31,17.50
2013,07,19,07,32,17.60
2013,07,19,07,33,17.60
2013,07,19,07,34,17.60
2013,07,19,07,35,17.60
2013,07,19,07,36,17.60
2013,07,19,07,37,17.60
2013,07,19,07,38,17.60
2013,07,19,07,39,17.70
2013,07,19,07,40,17.70
2013,07,19,07,41,17.70
2013,07,19,07,42,17.70
2013,07,19,07,43,17.70
2013,07,19,07,44,17.70
2013,07,19,07,45,17.70
2013,07,19,07,46,17.70
2013,07,19,07,47,17.70
2013,07,19,07,48,17.80
2013,07,19,07,49,17.80
2013,07,19,07,50,17.80
2013,07,19,07,51,17.80
2013,07,19,07,52,17.80
2013,07,19,07,53,17.90
2013,07,19,07,54,17.90
2013,07,19,07,55,17.90
2013,07,19,07,56,17.90
2013,07,19,07,57,17.90
2013,07,19,07,58,18.00
2013,07,19,07,59,18.00
2013,07,19,08,00,18.00
2013,07,19,08,01,18.10
2013,07,19,08,02,18.10
2013,07,19,08,03,18.10
2013,07,19,08,04,18.20
2013,07,19,08,05,18.20
2013,07,19,08,06,18.20
2013,07,19,08,07,18.20
2013,07,19,08,08,18.20
2013,07,19,08,09,18.20
2013,07,19,08,10,18.20
2013,07,19,08,11,18.20
2013,07,19,08,12,18.20
2013,07,19,08,13,18.20
2013,07,19,08,14,18.20
2013,07,19,08,15,18.30
2013,07,19,08,16,18.30
2013,07,19,08,17,18.40
2013,07,19,08,18,18.40
2013,07,19,08,19,18.50
2013,07,19,08,20,18.50
2013,07,19,08,21,18.60
2013,07,19,08,22,18.60
2013,07,19,08,23,18.70
2013,07,19,08,24,18.70
2013,07,19,08,25,18.60
2013,07,19,08,26,18.60
2013,07,19,08,27,18.60
2013,07,19,08,28,18.50
2013,07,19,08,29,18.40
2013,07,19,08,30,18.40
2013,07,19,08,31,18.30
2013,07,19,08,32,18.30
2013,07,19,08,33,18.30
2013,07,19,08,34,18.30
2013,07,19,08,35,18.30
2013,07,19,08,36,18.30
2013,07,19,08,37,18.30
2013,07,19,08,38,18.30
2013,07,19,08,39,18.30
2013,07,19,08,40,18.40
2013,07,19,08,41,18.40
2013,07,19,08,42,18.40
2013,07,19,08,43,18.40
2013,07,19,08,44,18.40
2013,07,19,08,45,18.40
2013,07,19,08,46,18.40
2013,07,19,08,47,18.40
2013,07,19,08,48,18.40
2013,07,19,08,49,18.40
2013,07,19,08,50,18.40
2013,07,19,08,51,18.40
2013,07,19,08,52,18.30
2013,07,19,08,53,18.40
2013,07,19,08,54,18.40
2013,07,19,08,55,18.40
2013,07,19,08,56,18.40
2013,07,19,08,57,18.40
2013,07,19,08,58,18.40
2013,07,19,08,59,18.40
2013,07,19,09,00,18.40
2013,07,19,09,01,18.40
2013,07,19,09,02,18.40
2013,07,19,09,03,18.40
2013,07,19,09,04,18.40
2013,07,19,09,05,18.40
2013,07,19,09,06,18.50
2013,07,19,09,07,18.50
2013,07,19,09,08,18.50
2013,07,19,09,09,18.40
2013,07,19,09,10,18.40
2013,07,19,09,11,18.30
2013,07,19,09,12,18.30
2013,07,19,09,13,18.30
2013,07,19,09,14,18.30
2013,07,19,09,15,18.30
2013,07,19,09,16,18.40
2013,07,19,09,17,18.40
2013,07,19,09,18,18.40
2013,07,19,09,19,18.40
2013,07,19,09,20,18.40
2013,07,19,09,21,18.40
2013,07,19,09,22,18.40
2013,07,19,09,23,18.40
2013,07,19,09,24,18.40
2013,07,19,09,25,18.40
2013,07,19,09,26,18.40
2013,07,19,09,27,18.40
2013,07,19,09,28,18.40
2013,07,19,09,29,18.40
2013,07,19,09,30,18.40
2013,07,19,09,31,18.40
2013,07,19,09,32,18.40
2013,07,19,09,33,18.40
2013,07,19,09,34,18.40
2013,07,19,09,35,18.50
2013,07,19,09,36,18.50
2013,07,19,09,37,18.50
2013,07,19,09,38,18.50
2013,07,19,09,39,18.50
2013,07,19,09,40,18.60
2013,07,19,09,41,18.60
2013,07,19,09,42,18.60
2013,07,19,09,43,18.60
2013,07,19,09,44,18.70
2013,07,19,09,45,18.70
2013,07,19,09,46,18.70
2013,07,19,09,47,18.70
2013,07,19,09,48,18.70
2013,07,19,09,49,18.70
2013,07,19,09,50,18.70
2013,07,19,09,51,18.70
2013,07,19,09,52,18.80
2013,07,19,09,53,18.80
2013,07,19,09,54,18.80
2013,07,19,09,55,18.80
2013,07,19,09,56,18.70
2013,07,19,09,57,18.70
2013,07,19,09,58,18.70
2013,07,19,09,59,18.70
2013,07,19,10,00,18.80
2013,07,19,10,01,18.80
2013,07,19,10,02,18.80
2013,07,19,10,03,18.70
2013,07,19,10,04,18.70
2013,07,19,10,05,18.70
2013,07,19,10,06,18.70
2013,07,19,10,07,18.70
2013,07,19,10,08,18.60
2013,07,19,10,09,18.60
2013,07,19,10,10,18.60
2013,07,19,10,11,18.60
2013,07,19,10,12,18.60
2013,07,19,10,13,18.60
2013,07,19,10,14,18.60
2013,07,19,10,15,18.60
2013,07,19,10,16,18.70
2013,07,19,10,17,18.70
2013,07,19,10,18,18.80
2013,07,19,10,19,18.80
2013,07,19,10,20,18.80
2013,07,19,10,21,18.80
2013,07,19,10,22,18.80
2013,07,19,10,23,18.80
2013,07,19,10,24,18.70
2013,07,19,10,25,18.70
2013,07,19,10,26,18.70
2013,07,19,10,27,18.60
2013,07,19,10,28,18.60
2013,07,19,10,29,18.60
2013,07,19,10,30,18.50
2013,07,19,10,31,18.50
2013,07,19,10,32,18.50
2013,07,19,10,33,18.40
2013,07,19,10,34,18.40
2013,07,19,10,35,18.40
2013,07,19,10,36,18.40
2013,07,19,10,37,18.40
2013,07,19,10,38,18.50
2013,07,19,10,39,18.60
2013,07,19,10,40,18.60
2013,07,19,10,41,18.60
2013,07,19,10,42,18.60
2013,07,19,10,43,18.60
2013,07,19,10,44,18.60
2013,07,19,10,45,18.60
2013,07,19,10,46,18.60
2013,07,19,10,47,18.60
2013,07,19,10,48,18.60
2013,07,19,10,49,18.60
2013,07,19,10,50,18.60
2013,07,19,10,51,18.70
2013,07,19,10,52,18.70
2013,07,19,10,53,18.80
2013,07,19,10,54,18.80
2013,07,19,10,55,18.80
2013,07,19,10,56,18.80
2013,07,19,10,57,18.70
2013,07,19,10,58,18.70
2013,07,19,10,59,18.70
2013,07,19,11,00,18.80
2013,07,19,11,01,18.80
2013,07,19,11,02,18.80
2013,07,19,11,03,18.80
2013,07,19,11,04,18.80
2013,07,19,11,05,18.90
2013,07,19,11,06,18.90
2013,07,19,11,07,18.90
2013,07,19,11,08,18.90
2013,07,19,11,09,18.90
2013,07,19,11,10,18.90
2013,07,19,11,11,18.90
2013,07,19,11,12,18.90
2013,07,19,11,13,18.90
2013,07,19,11,14,18.90
2013,07,19,11,15,18.90
2013,07,19,11,16,19.00
2013,07,19,11,17,19.00
2013,07,19,11,18,19.00
2013,07,19,11,19,19.00
2013,07,19,11,20,19.10
2013,07,19,11,21,19.10
2013,07,19,11,22,19.10
2013,07,19,11,23,19.20
2013,07,19,11,24,19.20
2013,07,19,11,25,19.20
2013,07,19,11,26,19.20
2013,07,19,11,27,19.20
2013,07,19,11,28,19.20
2013,07,19,11,29,19.20
2013,07,19,11,30,19.30
2013,07,19,11,31,19.30
2013,07,19,11,32,19.40
2013,07,19,11,33,19.40
2013,07,19,11,34,19.40
2013,07,19,11,35,19.40
2013,07,19,11,36,19.40
2013,07,19,11,37,19.40
2013,07,19,11,38,19.40
2013,07,19,11,39,19.40
2013,07,19,11,40,19.40
2013,07,19,11,41,19.50
2013,07,19,11,42,19.50
2013,07,19,11,43,19.60
2013,07,19,11,44,19.60
2013,07,19,11,45,19.60
2013,07,19,11,46,19.60
2013,07,19,11,47,19.60
2013,07,19,11,48,19.60
2013,07,19,11,49,19.50
2013,07,19,11,50,19.50
2013,07,19,11,51,19.40
2013,07,19,11,52,19.40
2013,07,19,11,53,19.40
2013,07,19,11,54,19.40
2013,07,19,11,55,19.40
2013,07,19,11,56,19.50
2013,07,19,11,57,19.50
2013,07,19,11,58,19.50
2013,07,19,11,59,19.50
2013,07,19,12,00,19.50
2013,07,19,12,01,19.40
2013,07,19,12,02,19.40
2013,07,19,12,03,19.40
2013,07,19,12,04,19.40
2013,07,19,12,05,19.40
2013,07,19,12,06,19.40
2013,07,19,12,07,19.40
2013,07,19,12,08,19.40
2013,07,19,12,09,19.30
2013,07,19,12,10,19.30
2013,07,19,12,11,19.30
2013,07,19,12,12,19.30
2013,07,19,12,13,19.30
2013,07,19,12,14,19.30
2013,07,19,12,15,19.30
2013,07,19,12,16,19.30
2013,07,19,12,17,19.40
2013,07,19,12,18,19.40
2013,07,19,12,19,19.50
2013,07,19,12,20,19.50
2013,07,19,12,21,19.50
2013,07,19,12,22,19.60
2013,07,19,12,23,19.60
2013,07,19,12,24,19.70
2013,07,19,12,25,19.70
2013,07,19,12,26,19.70
2013,07,19,12,27,19.80
2013,07,19,12,28,19.80
2013,07,19,12,29,19.80
2013,07,19,12,30,19.70
2013,07,19,12,31,19.80
2013,07,19,12,32,19.80
2013,07,19,12,33,19.80
2013,07,19,12,34,19.90
2013,07,19,12,35,19.90
2013,07,19,12,36,19.80
2013,07,19,12,37,19.80
2013,07,19,12,38,19.90
2013,07,19,12,39,19.90
2013,07,19,12,40,19.90
2013,07,19,12,41,19.90
2013,07,19,12,42,19.90
2013,07,19,12,43,19.90
2013,07,19,12,44,19.90
2013,07,19,12,45,19.90
2013,07,19,12,46,19.90
2013,07,19,12,47,20.00
2013,07,19,12,48,20.00
2013,07,19,12,49,20.00
2013,07,19,12,50,20.00
2013,07,19,12,51,20.10
2013,07,19,12,52,20.10
2013,07,19,12,53,20.10
2013,07,19,12,54,20.20
2013,07,19,12,55,20.20
2013,07,19,12,56,20.20
2013,07,19,12,57,20.30
2013,07,19,12,58,20.30
2013,07,19,12,59,20.30
2013,07,19,13,00,20.20
2013,07,19,13,01,20.20
2013,07,19,13,02,20.20
2013,07,19,13,03,20.20
2013,07,19,13,04,20.20
2013,07,19,13,05,20.30
2013,07,19,13,06,20.40
2013,07,19,13,07,20.50
2013,07,19,13,08,20.50
2013,07,19,13,09,20.60
2013,07,19,13,10,20.60
2013,07,19,13,11,20.60
2013,07,19,13,12,20.60
2013,07,19,13,13,20.70
2013,07,19,13,14,20.70
2013,07,19,13,15,20.70
2013,07,19,13,16,20.70
2013,07,19,13,17,20.80
2013,07,19,13,18,20.80
2013,07,19,13,19,20.80
2013,07,19,13,20,20.80
2013,07,19,13,21,20.90
2013,07,19,13,22,20.90
2013,07,19,13,23,20.90
2013,07,19,13,24,20.90
2013,07,19,13,25,20.90
2013,07,19,13,26,20.90
2013,07,19,13,27,21.00
2013,07,19,13,28,21.00
2013,07,19,13,29,21.00
2013,07,19,13,30,21.00
2013,07,19,13,31,21.10
2013,07,19,13,32,21.10
2013,07,19,13,33,21.10
2013,07,19,13,34,21.20
2013,07,19,13,35,21.20
2013,07,19,13,36,21.20
2013,07,19,13,37,21.20
2013,07,19,13,38,21.20
2013,07,19,13,39,21.20
2013,07,19,13,40,21.30
2013,07,19,13,41,21.20
2013,07,19,13,42,21.20
2013,07,19,13,43,21.20
2013,07,19,13,44,21.20
2013,07,19,13,45,21.20
2013,07,19,13,46,21.30
2013,07,19,13,47,21.30
2013,07,19,13,48,21.40
2013,07,19,13,49,21.50
2013,07,19,13,50,21.50
2013,07,19,13,51,21.50
2013,07,19,13,52,21.40
2013,07,19,13,53,21.40
2013,07,19,13,54,21.40
2013,07,19,13,55,21.40
2013,07,19,13,56,21.40
2013,07,19,13,57,21.40
2013,07,19,13,58,21.40
2013,07,19,13,59,21.30
2013,07,19,14,00,21.30
2013,07,19,14,01,21.20
2013,07,19,14,02,21.20
2013,07,19,14,03,21.20
2013,07,19,14,04,21.10
2013,07,19,14,05,21.10
2013,07,19,14,06,21.10
2013,07,19,14,07,21.10
2013,07,19,14,08,21.20
2013,07,19,14,09,21.20
2013,07,19,14,10,21.30
2013,07,19,14,11,21.40
2013,07,19,14,12,21.40
2013,07,19,14,13,21.50
2013,07,19,14,14,21.40
2013,07,19,14,15,21.50
2013,07,19,14,16,21.50
2013,07,19,14,17,21.50
2013,07,19,14,18,21.60
2013,07,19,14,19,21.60
2013,07,19,14,20,21.60
2013,07,19,14,21,21.70
2013,07,19,14,22,21.70
2013,07,19,14,23,21.80
2013,07,19,14,24,21.80
2013,07,19,14,25,21.90
2013,07,19,14,26,21.90
2013,07,19,14,27,22.00
2013,07,19,14,28,22.10
2013,07,19,14,29,22.20
2013,07,19,14,30,22.20
2013,07,19,14,31,22.30
2013,07,19,14,32,22.20
2013,07,19,14,33,22.20
2013,07,19,14,34,22.10
2013,07,19,14,35,22.10
2013,07,19,14,36,22.10
2013,07,19,14,37,22.10
2013,07,19,14,38,22.10
2013,07,19,14,39,22.20
2013,07,19,14,40,22.20
2013,07,19,14,41,22.20
2013,07,19,14,42,22.30
2013,07,19,14,43,22.30
2013,07,19,14,44,22.30
2013,07,19,14,45,22.30
2013,07,19,14,46,22.30
2013,07,19,14,47,22.30
2013,07,19,14,48,22.30
2013,07,19,14,49,22.30
2013,07,19,14,50,22.30
2013,07,19,14,51,22.30
2013,07,19,14,52,22.30
2013,07,19,14,53,22.40
2013,07,19,14,54,22.40
2013,07,19,14,55,22.40
2013,07,19,14,56,22.40
2013,07,19,14,57,22.50
2013,07,19,14,58,22.50
2013,07,19,14,59,22.50
2013,07,19,15,00,22.60
2013,07,19,15,01,22.60
2013,07,19,15,02,22.70
2013,07,19,15,03,22.70
2013,07,19,15,04,22.70
2013,07,19,15,05,22.70
2013,07,19,15,06,22.70
2013,07,19,15,07,22.70
2013,07,19,15,08,22.70
2013,07,19,15,09,22.70
2013,07,19,15,10,22.60
2013,07,19,15,11,22.60
2013,07,19,15,12,22.60
2013,07,19,15,13,22.60
2013,07,19,15,14,22.60
2013,07,19,15,15,22.60
2013,07,19,15,16,22.60
2013,07,19,15,17,22.70
2013,07,19,15,18,22.70
2013,07,19,15,19,22.80
2013,07,19,15,20,22.80
2013,07,19,15,21,22.80
2013,07,19,15,22,22.80
2013,07,19,15,23,22.80
2013,07,19,15,24,22.90
2013,07,19,15,25,22.90
2013,07,19,15,26,22.90
2013,07,19,15,27,22.90
2013,07,19,15,28,22.90
2013,07,19,15,29,22.90
2013,07,19,15,30,22.90
2013,07,19,15,31,22.80
2013,07,19,15,32,22.80
2013,07,19,15,33,22.70
2013,07,19,15,34,22.70
2013,07,19,15,35,22.60
2013,07,19,15,36,22.60
2013,07,19,15,37,22.60
2013,07,19,15,38,22.60
2013,07,19,15,39,22.60
2013,07,19,15,40,22.60
2013,07,19,15,41,22.60
2013,07,19,15,42,22.60
2013,07,19,15,43,22.60
2013,07,19,15,44,22.70
2013,07,19,15,45,22.70
2013,07,19,15,46,22.80
2013,07,19,15,47,22.80
2013,07,19,15,48,22.80
2013,07,19,15,49,22.80
2013,07,19,15,50,22.90
2013,07,19,15,51,22.90
2013,07,19,15,52,22.90
2013,07,19,15,53,22.90
2013,07,19,15,54,22.90
2013,07,19,15,55,22.90
2013,07,19,15,56,22.90
2013,07,19,15,57,22.80
2013,07,19,15,58,22.90
2013,07,19,15,59,22.90
2013,07,19,16,00,22.90
2013,07,19,16,01,23.00
2013,07,19,16,02,23.00
2013,07,19,16,03,23.10
2013,07,19,16,04,23.10
2013,07,19,16,05,23.10
2013,07,19,16,06,23.10
2013,07,19,16,07,23.10
2013,07,19,16,08,23.10
2013,07,19,16,09,23.10
2013,07,19,16,10,23.10
2013,07,19,16,11,23.10
2013,07,19,16,12,23.00
2013,07,19,16,13,23.00
2013,07,19,16,14,22.90
2013,07,19,16,15,22.90
2013,07,19,16,16,22.90
2013,07,19,16,17,22.90
2013,07,19,16,18,23.00
2013,07,19,16,19,23.00
2013,07,19,16,20,23.10
2013,07,19,16,21,23.10
2013,07,19,16,22,23.20
2013,07,19,16,23,23.20
2013,07,19,16,24,23.20
2013,07,19,16,25,23.20
2013,07,19,16,26,23.20
2013,07,19,16,27,23.20
2013,07,19,16,28,23.20
2013,07,19,16,29,23.20
2013,07,19,16,30,23.20
2013,07,19,16,31,23.20
2013,07,19,16,32,23.20
2013,07,19,16,33,23.20
2013,07,19,16,34,23.20
2013,07,19,16,35,23.20
2013,07,19,16,36,23.20
2013,07,19,16,37,23.30
2013,07,19,16,38,23.30
2013,07,19,16,39,23.30
2013,07,19,16,40,23.30
2013,07,19,16,41,23.30
2013,07,19,16,42,23.30
2013,07,19,16,43,23.30
2013,07,19,16,44,23.40
2013,07,19,16,45,23.40
2013,07,19,16,46,23.40
2013,07,19,16,47,23.50
2013,07,19,16,48,23.50
2013,07,19,16,49,23.60
2013,07,19,16,50,23.70
2013,07,19,16,51,23.80
2013,07,19,16,52,23.90
2013,07,19,16,53,23.90
2013,07,19,16,54,24.00
2013,07,19,16,55,24.00
2013,07,19,16,56,24.10
2013,07,19,16,57,24.10
2013,07,19,16,58,24.20
2013,07,19,16,59,24.20
2013,07,19,17,00,24.20
2013,07,19,17,01,24.10
2013,07,19,17,02,23.90
2013,07,19,17,03,23.70
2013,07,19,17,04,23.50
2013,07,19,17,05,23.40
2013,07,19,17,06,23.20
2013,07,19,17,07,23.10
2013,07,19,17,08,23.00
2013,07,19,17,09,23.00
2013,07,19,17,10,22.90
2013,07,19,17,11,22.90
2013,07,19,17,12,22.90
2013,07,19,17,13,22.90
2013,07,19,17,14,22.90
2013,07,19,17,15,22.80
2013,07,19,17,16,22.80
2013,07,19,17,17,22.80
2013,07,19,17,18,22.80
2013,07,19,17,19,22.80